Location: Cormont
(50.5693°N, 1.7416°E)
Time: 06:53:56
(UTC+00:00)

STARLINK-54 - Pass Details

Date: 21 October 2019
Orbit: 548 x 551 km, 53.0° (Epoch: 19 November)

Event Time Altitude Azimuth Distance (km) Brightness Sun altitude
Rises 19:11:24 0° 285° (WNW) 2,720 8.6 -23.1°
Reaches altitude 10° 19:13:38 10° 288° (WNW) 1,825 7.4 -23.5°
Enters shadow 19:17:26 67° 331° (NNW) 599 3.8 -24.1°
